"Pseudo-MPEC" for P10QBxB

Created 2019 Aug 20 16:07:04 UT using Find_Orb

Click here for an explanation of pseudo-MPECs

 
 Astrometry: 
     P10QBxB  C2019 08 114U5[4fx0xbir:a`la.Ox9I!iLH_7qALWa;C_%uGHG==.#cJf8Y;#F51
     P10QBxB  C2019 08 11HgK-YvO_W`FL],+2STYKKB(4FnLHMBP/+]B\f'9N?=4JOgXcl)+uF51
     P10QBxB  C2019 08 11=+iDSqf3GAstrometryO?^r!%yn+'3I;]x]paOyFJqQn;_?[rf0kF51
     P10QBxB  C2019 08 11$(F)\:5='8Ye6p[RE4Rredacted;J+*rC7[;Wla[N-ed()click8F51
     P10QBxB KC2019 08 12;n(1)4VrgZWKRXnimcF9$(h2G,4Gh=9)funI0%AQ_yl1J[$g\l`$L01
     P10QBxB KC2019 08 12eFlfhere5/YrOforTgylto+sKw^O3c=I[/AAg`gYLVB+Or9pK2E'L01
     P10QBxB KC2019 08 12Gs-yW\ftS5U0P)prBN_explanation'W1t'6,C[hETODf1d`?y[/L01
     P10QBxB pC2019 08 12F?%[!mt\$_V,ucOW+NeZLQE6ldibR.?1MT2tOHx4%^dBhAM`ail,L01
     P10QBxB KC2019 08 12%^qoFKGTj3'DEUMnTMlIZ!vwa]@SCEknn7?pFc)'b(]5PkQ#]1L2L01
     P10QBxB ^C2019 08 12.53896503 04 48.244+17 06 00.89   ~8CHq 20.90GVNEOCP568
     P10QBxB ^C2019 08 12.54016403 04 48.299+17 06 03.99   ~8CHq 20.85GVNEOCP568
     P10QBxB ^C2019 08 12.54136203 04 48.355+17 06 07.09   ~8CHq 20.91GVNEOCP568
     P10QBxB KC2019 08 20ot9i']hsQ]dq-0Zj8Bru2I@=#O-uacD5#3q:jk9.F?Q61Mb`_eWlL01
     P10QBxB KC2019 08 20),SYG#7s7.3mR%,`u,YLBj^*9J0JnVIMXe*I_AWrh/QtoMOSsSa$L01
     P10QBxB KC2019 08 20G1hq'\(Pc:oncTi@'X)2,R_3[m5UP3Ga!sh8U!ohI2Bm,#%561AOL01

Station data:
(568) Mauna Kea  (N19.826116 W155.472200)  US/Hawaii.
(F51) Pan-STARRS 1, Haleakala  (N20.707235 W156.255910)  US/Hawaii.
   Observers N. Primak, A. Schultz, S. Watters, J. Thiel, T. Goggia. Measurer
   PS1 Science Consortium. 1.8-m Ritchey-Chrétien + CCD.
(L01) Višnjan Observatory, Tičan  (N45.290900 E13.749300)  Croatia.
   Observers K. Korlević, E. Pettarin. Measurer E. Pettarin. 1.0-m f/2.9
   reflector + CCD.

Orbital elements:  P10QBxB
   Perihelion 2019 Jul 28.250196 +/- 1.97 TT =  6:00:16 (JD 2458692.750196)
Epoch 2019 Aug 20.0 TT = JDT 2458715.5   Earth MOID: 0.4770   Ma: 0.0829
M   7.40464012 +/- 0.9              (J2000 ecliptic)          AutoNEOCP
n   0.32548148 +/- 0.0162           Peri.  350.19473 +/- 1.2
a   2.09307691 +/- 0.0694           Node     5.54176 +/- 0.27
e   0.2951972 +/- 0.0196            Incl.   47.39054 +/- 0.30
P   3.03                   H 18.7   G  0.15   U 10.0  
q 1.47520630 +/- 0.00869    Q 2.71094752 +/- 0.144
From 15 observations 2019 Aug. 11-20; mean residual 0".25
Residuals in arcseconds: 
190811 F51  .25+  .12+    190812 L01  .35+  .33-    190812 568  .01+  .12+    
190811 F51  .03+  .17+    190812 L01  .09-  .07+    190812 568  .03+  .12+    
190811 F51  .04-  .07+    190812 L01  .04-  .26-    190820 L01  .20+  .03-    
190811 F51  .04-  .02-    190812 L01  .31-  .47-    190820 L01  .30-  .62-    
190812 L01  .22-  .17+    190812 568  .02+  .11+    190820 L01  .11+  .64+    

Ephemerides (geocentric):
Date (UTC) HH   RA              Dec         delta   r     elong  mag " sig PA
---- -- -- --  -------------   -----------  ------ ------ -----  --- ---- ---
2019 08 20 16  03 10 32.673   +23 12 47.51  0.9955 1.4861  95.5 21.2 .270 178
2019 08 20 17  03 10 34.163   +23 14 46.26  0.9951 1.4862  95.5 21.2 .282 175
2019 08 20 18  03 10 35.651   +23 16 45.07  0.9948 1.4862  95.6 21.2 .295 172
2019 08 20 19  03 10 37.135   +23 18 43.94  0.9944 1.4862  95.6 21.2 .310 169
2019 08 20 20  03 10 38.616   +23 20 42.87  0.9941 1.4863  95.6 21.2 .325 166
2019 08 20 21  03 10 40.094   +23 22 41.86  0.9937 1.4863  95.6 21.2 .340 164
2019 08 20 22  03 10 41.568   +23 24 40.92  0.9934 1.4864  95.7 21.2 .357 161
2019 08 20 23  03 10 43.040   +23 26 40.03  0.9931 1.4864  95.7 21.2 .374 159
2019 08 21 00  03 10 44.508   +23 28 39.21  0.9927 1.4864  95.7 21.2 .392 157
2019 08 21 01  03 10 45.973   +23 30 38.45  0.9924 1.4865  95.7 21.2 .411 156
2019 08 21 02  03 10 47.435   +23 32 37.75  0.9920 1.4865  95.8 21.2 .430 154
2019 08 21 03  03 10 48.894   +23 34 37.12  0.9917 1.4865  95.8 21.2 .450 152
2019 08 21 04  03 10 50.349   +23 36 36.54  0.9913 1.4866  95.8 21.2 .470 151
2019 08 21 05  03 10 51.801   +23 38 36.03  0.9910 1.4866  95.8 21.2 .491 150
2019 08 21 06  03 10 53.250   +23 40 35.58  0.9907 1.4867  95.9 21.2 .512 149
2019 08 21 07  03 10 54.696   +23 42 35.19  0.9903 1.4867  95.9 21.2 .533 148
2019 08 21 08  03 10 56.139   +23 44 34.86  .98998 1.4867  95.9 21.2 .555 147
2019 08 21 09  03 10 57.578   +23 46 34.59  .98964 1.4868  95.9 21.2 .578 146
2019 08 21 10  03 10 59.014   +23 48 34.39  .98930 1.4868  96.0 21.2 .601 145
2019 08 21 11  03 11 00.447   +23 50 34.25  .98896 1.4869  96.0 21.2 .624 144
2019 08 21 12  03 11 01.876   +23 52 34.17  .98862 1.4869  96.0 21.2 .647 143
2019 08 21 13  03 11 03.303   +23 54 34.15  .98828 1.4869  96.0 21.2 .671 142
2019 08 21 14  03 11 04.726   +23 56 34.19  .98794 1.4870  96.1 21.2 .695 142
2019 08 21 15  03 11 06.145   +23 58 34.30  .98760 1.4870  96.1 21.2 .720 141
2019 08 21 16  03 11 07.562   +24 00 34.47  .98726 1.4871  96.1 21.2 .745 140
2019 08 21 17  03 11 08.975   +24 02 34.69  .98692 1.4871  96.2 21.2 .770 140
2019 08 21 18  03 11 10.385   +24 04 34.99  .98658 1.4871  96.2 21.2 .796 139
2019 08 21 19  03 11 11.791   +24 06 35.34  .98625 1.4872  96.2 21.2 .822 139
2019 08 21 20  03 11 13.194   +24 08 35.75  .98591 1.4872  96.2 21.2 .848 138
2019 08 21 21  03 11 14.594   +24 10 36.23  .98557 1.4873  96.3 21.2 .874 138
2019 08 21 22  03 11 15.991   +24 12 36.77  .98523 1.4873  96.3 21.2 .901 137
2019 08 21 23  03 11 17.384   +24 14 37.37  .98490 1.4873  96.3 21.2 .928 137
2019 08 22 00  03 11 18.774   +24 16 38.03  .98456 1.4874  96.3 21.2 .956 137
2019 08 22 01  03 11 20.161   +24 18 38.76  .98422 1.4874  96.4 21.2 .984 136
2019 08 22 02  03 11 21.544   +24 20 39.54  .98388 1.4875  96.4 21.2 1.01 136
2019 08 22 03  03 11 22.924   +24 22 40.39  .98355 1.4875  96.4 21.2 1.04 136
2019 08 22 04  03 11 24.300   +24 24 41.30  .98321 1.4876  96.4 21.2 1.07 135
2019 08 22 05  03 11 25.673   +24 26 42.27  .98288 1.4876  96.5 21.2 1.10 135
2019 08 22 06  03 11 27.043   +24 28 43.31  .98254 1.4876  96.5 21.2 1.13 135
2019 08 22 07  03 11 28.410   +24 30 44.40  .98220 1.4877  96.5 21.2 1.16 135
2019 08 22 08  03 11 29.773   +24 32 45.56  .98187 1.4877  96.5 21.2 1.19 134
2019 08 22 09  03 11 31.132   +24 34 46.78  .98153 1.4878  96.6 21.2 1.22 134
2019 08 22 10  03 11 32.489   +24 36 48.06  .98120 1.4878  96.6 21.2 1.25 134
2019 08 22 11  03 11 33.841   +24 38 49.40  .98086 1.4878  96.6 21.2 1.28 134
2019 08 22 12  03 11 35.191   +24 40 50.81  .98053 1.4879  96.6 21.2 1.31 133
2019 08 22 13  03 11 36.537   +24 42 52.28  .98020 1.4879  96.7 21.2 1.34 133
2019 08 22 14  03 11 37.879   +24 44 53.81  .97986 1.4880  96.7 21.2 1.37 133
2019 08 22 15  03 11 39.219   +24 46 55.40  .97953 1.4880  96.7 21.2 1.40 133